Wind_Speed
11 7 7 5 7 10 12 11 19 17 15 15 12 7 11 13 13 8 21 19 16 16 14 13 13 11 10 9 8 8 10 10 11 12 12 13 13 13 14 15 15 15 14 15 17 17 18 19 19
4 9 6 7 13 12 9 14 11 10 11 12 10 15 11 5 11 21 19 16 17 16 13 11 11 9 8 8 9 10 11 11 13 13 13 14 14 13 15 16 16 16 17 20 21 22 22 23 23
11 9 6 12 15 10 13 8 8 7 8 7 7 10 5 8 23 19 17 18 17 15 12 10 8 7 7 9 11 12 12 12 13 13 13 13 14 15 17 19 19 21 23 22 21 22 21 23 22
14 8 10 14 12 13 12 11 10 6 6 8 7 4 3 24 18 17 17 17 16 13 10 9 9 8 10 11 13 14 14 14 14 13 14 16 19 21 22 23 24 24 23 22 22 21 22 22 21
10 9 12 16 12 15 14 11 6 4 5 5 5 3 13 21 19 19 17 15 13 10 10 8 10 11 12 14 15 16 15 16 16 17 19 22 25 26 26 25 25 25 24 23 22 21 21 21 21
10 10 17 12 16 13 12 8 4 2 1 2 5 10 24 20 20 19 18 14 12 10 9 10 13 13 14 15 16 17 17 16 19 21 24 26 27 27 25 24 25 24 23 23 22 22 21 21 22
12 18 14 14 17 15 11 9 4 4 1 4 8 19 22 22 22 19 16 13 11 11 11 12 12 14 15 16 16 17 18 20 23 25 26 26 27 25 23 23 23 22 23 23 22 22 22 22 22
16 14 13 12 14 13 8 6 5 5 6 11 14 13 17 20 21 18 15 12 11 12 12 12 12 14 16 17 18 18 21 23 26 26 25 24 24 24 22 21 21 21 21 21 21 21 20 20 20
13 12 12 12 9 10 9 7 7 5 8 12 15 9 12 15 18 17 13 11 10 11 12 12 13 13 15 17 19 22 24 25 25 24 23 22 20 20 20 20 19 18 18 18 18 17 16 16 15
7 9 8 6 5 7 7 5 5 3 10 8 6 14 14 13 15 15 12 11 10 9 11 13 14 14 14 16 21 24 26 27 24 23 21 19 17 17 17 17 16 16 15 14 14 13 13 12 11
6 5 8 6 3 5 10 8 7 11 6 9 6 9 14 13 16 16 13 11 9 8 10 11 14 15 16 16 22 25 26 25 23 21 19 17 14 13 14 14 12 11 11 11 10 9 8 8 8
7 5 6 5 8 11 12 12 11 9 6 8 13 8 10 13 14 14 12 10 8 9 10 11 12 15 18 19 21 24 25 25 23 19 16 14 13 11 11 11 9 7 6 6 6 5 3 2 2
8 5 6 7 8 11 12 11 12 11 7 4 8 10 10 12 15 14 14 11 10 10 10 11 12 14 16 20 22 22 22 22 21 20 17 15 13 11 8 6 5 4 4 3 3 4 5 6 5
12 9 9 9 8 8 8 7 7 6 7 5 6 10 10 9 10 12 11 10 10 9 8 8 11 14 16 19 20 21 21 20 18 16 14 12 11 10 9 7 7 6 4 3 2 5 3 1 5
13 11 9 8 8 7 7 1 1 1 2 2 6 11 10 9 11 12 12 12 11 10 13 8 10 13 16 17 20 20 20 19 19 18 16 14 12 12 11 10 9 8 8 7 7 5 5 4 4
11 10 9 7 6 5 6 3 4 3 3 3 7 12 11 11 16 15 13 12 14 14 12 11 10 10 13 16 18 19 20 20 19 17 16 16 14 14 14 13 13 12 10 8 14 12 13 13 11
14 10 8 7 6 5 7 5 7 7 7 5 7 12 13 18 16 15 14 11 11 12 12 10 9 8 10 17 15 18 20 20 20 19 15 10 13 13 15 16 14 16 17 14 12 14 15 17 19
9 11 10 7 9 10 9 11 10 10 6 5 7 14 17 18 13 13 13 12 14 14 13 14 12 9 9 13 16 15 16 20 21 18 17 15 13 13 12 13 13 13 14 14 13 14 14 15 16
14 12 11 8 12 10 12 13 13 7 5 9 11 16 18 18 15 15 16 12 13 14 15 15 17 15 14 10 12 15 15 16 20 20 17 15 14 12 12 13 13 13 13 13 13 14 13 14 14
7 11 11 9 14 13 13 16 16 13 4 4 7 10 13 17 21 19 16 17 15 13 13 16 17 21 19 16 15 16 16 15 17 18 15 13 12 13 13 13 14 13 14 15 16 15 15 14 15
7 12 15 14 16 17 19 20 11 17 16 15 12 11 12 15 19 18 17 14 13 15 15 17 19 22 22 20 21 19 18 17 16 15 14 14 16 15 16 16 17 18 18 20 19 17 17 15 16
7 6 9 14 12 8 12 9 20 10 11 17 20 19 12 14 17 18 17 14 10 6 12 16 20 24 24 23 24 22 19 16 16 15 16 17 18 18 18 17 17 15 20 19 17 18 18 17 17
3 9 6 8 9 12 12 9 8 21 14 14 14 21 16 14 16 17 15 10 7 10 12 14 17 23 26 28 26 25 22 20 20 20 21 20 20 20 19 17 17 18 18 18 18 18 18 18 22
7 5 3 5 8 6 9 8 12 9 11 9 9 10 20 19 16 15 13 13 11 10 12 14 15 19 25 28 29 27 26 26 25 23 24 25 24 23 19 20 20 18 16 16 15 18 17 17 17
9 6 2 1 2 5 6 6 14 18 17 15 11 9 17 25 22 18 16 15 13 10 8 11 12 16 19 25 28 29 30 30 29 29 29 30 27 27 23 20 18 17 15 14 15 17 16 16 19
16 14 11 8 6 7 6 7 10 16 13 17 21 14 15 25 27 23 20 20 17 15 17 17 15 17 21 25 30 31 33 33 33 32 31 32 31 22 21 20 19 16 15 13 13 13 16 17 18
16 17 16 11 7 6 10 17 20 17 19 17 15 13 15 28 36 34 30 26 23 25 25 27 24 23 22 25 28 34 36 37 38 31 31 30 22 24 22 21 20 17 19 20 19 18 19 21 22
12 15 11 12 6 9 10 8 16 15 16 14 15 11 9 18 28 30 30 29 27 29 32 35 36 30 27 30 28 11 29 35 28 16 15 15 16 19 18 22 21 21 20 21 21 26 27 26 26
19 16 18 15 10 15 14 11 11 11 14 14 14 13 8 8 15 23 25 26 25 28 35 35 35 33 25 15 26 20 17 9 13 9 13 18 20 21 25 27 25 20 28 28 29 25 20 25 25
27 22 21 17 10 12 12 13 11 12 13 12 14 17 17 9 9 14 19 20 19 19 21 27 30 33 40 32 22 24 8 13 11 15 20 25 27 23 23 23 23 27 29 26 20 18 23 27 28
Wind_Direction
122 144 125 90 92 106 94 112 127 119 111 116 128 131 123 115 120 134 130 128 123 119 121 120 115 115 109 105 105 104 107 104 102 105 113 113 113 113 111 110 107 110 112 107 101 102 103 102 95
149 147 117 78 115 107 95 134 115 110 98 102 115 121 113 53 124 133 129 130 127 123 125 122 114 112 118 115 113 116 114 115 110 113 114 114 116 116 113 110 113 115 111 106 105 103 101 98 96
148 135 107 105 116 102 116 136 102 117 101 123 126 128 74 102 129 133 131 132 129 130 132 121 122 118 112 116 123 113 114 114 117 116 119 119 120 119 119 115 115 112 110 108 104 100 100 96 95
139 136 97 112 116 118 137 118 127 86 135 151 134 128 101 133 134 135 133 132 130 134 132 131 124 126 121 122 118 121 124 125 122 121 123 124 121 120 117 116 115 112 111 109 104 101 95 91 88
139 129 113 116 112 115 122 117 99 59 71 119 140 164 143 136 138 137 136 133 133 134 133 126 125 122 126 130 131 133 133 134 133 130 127 124 121 118 120 120 117 113 112 107 101 97 95 93 90
147 138 132 115 121 124 117 113 67 38 50 124 145 154 146 140 140 141 143 138 134 131 129 130 132 130 132 134 137 136 137 135 130 126 123 120 117 119 120 117 113 113 110 105 101 98 96 94 93
132 139 129 130 132 128 124 138 101 29 94 147 142 154 152 148 144 147 146 138 129 126 129 133 130 127 135 139 139 136 135 133 128 124 123 121 118 119 119 116 112 109 105 105 105 102 98 95 93
134 133 143 141 140 141 136 118 88 36 119 131 141 168 166 155 151 151 149 136 128 127 129 134 133 131 139 140 137 135 136 132 129 128 126 123 125 124 123 115 111 111 112 111 107 104 102 98 95
140 131 145 145 144 142 128 90 36 52 124 134 151 155 177 160 155 153 151 135 126 125 133 136 132 131 139 142 140 140 139 136 136 136 134 132 132 126 122 119 117 116 113 110 106 104 101 98 94
130 118 113 101 122 136 144 103 10 71 128 113 173 167 180 163 156 153 149 140 132 122 132 135 133 134 137 145 145 145 145 144 146 143 142 139 136 127 123 120 121 120 117 114 110 106 102 95 95
135 140 128 113 139 105 97 93 88 116 122 110 86 153 172 163 161 159 158 152 142 131 128 129 136 139 141 150 150 151 151 152 152 153 151 145 138 128 120 122 122 119 120 117 104 104 99 95 78
141 156 165 162 125 110 111 102 112 118 116 123 116 143 174 166 168 165 158 150 143 134 127 127 141 147 148 152 157 159 160 160 160 160 161 156 152 146 136 127 129 121 119 121 120 137 100 91 72
122 134 169 125 129 122 107 104 86 91 95 129 134 150 175 176 174 173 169 160 152 144 122 127 144 153 157 158 163 169 170 169 168 168 172 172 166 164 162 156 152 125 84 88 183 214 238 303 295
137 134 130 132 150 146 126 121 98 65 70 67 152 164 170 181 182 184 175 165 166 169 162 138 146 157 160 166 173 177 178 177 179 181 186 184 184 183 191 200 211 201 191 130 219 186 154 6 344
151 156 155 158 181 172 169 185 181 141 43 64 173 179 183 185 164 158 167 165 161 165 165 160 154 165 177 175 180 184 188 188 188 191 196 205 205 210 212 223 241 242 245 235 224 217 232 260 298
153 169 167 180 194 200 197 247 294 275 294 318 202 191 191 180 165 156 150 155 166 175 181 183 174 165 176 188 191 194 197 199 202 203 207 223 227 232 231 236 247 240 248 256 245 255 260 264 261
177 185 199 192 210 235 231 265 328 329 274 275 208 199 187 175 177 177 164 154 162 168 184 184 185 180 176 188 199 209 210 209 214 213 216 224 235 250 249 247 252 253 250 255 265 256 258 260 259
200 206 208 198 232 240 263 260 279 300 260 258 210 202 188 182 177 174 170 175 167 177 187 199 204 207 199 193 201 205 205 217 222 229 239 248 263 266 255 247 259 260 262 265 267 265 269 275 271
225 241 238 248 246 252 263 260 270 275 257 252 224 208 209 200 177 191 197 201 198 194 200 207 216 217 221 215 216 216 219 225 226 228 234 241 261 257 264 267 267 273 276 278 276 275 276 279 279
228 252 245 278 271 255 274 288 274 264 212 191 204 210 209 204 214 212 209 211 217 224 226 228 223 224 224 225 221 220 221 222 227 234 244 258 253 255 257 261 266 269 282 283 285 282 285 287 293
264 260 261 277 287 278 283 306 280 269 248 224 209 193 206 198 211 222 226 225 225 231 241 235 235 230 225 226 226 225 222 219 226 236 242 252 259 265 267 265 272 275 274 278 277 280 285 284 297
285 314 271 273 275 268 292 296 309 304 309 265 241 216 209 201 203 208 220 228 233 247 248 245 235 229 230 226 229 229 232 228 230 235 245 248 255 263 272 271 269 270 279 273 276 277 287 279 285
316 349 277 275 268 266 279 294 292 306 309 295 271 249 221 216 203 192 192 199 225 231 251 250 242 235 231 232 235 234 233 234 237 236 243 252 259 264 268 272 270 270 279 266 272 285 287 279 281
315 318 330 278 273 268 259 237 295 321 317 325 297 253 214 211 204 201 197 206 221 230 236 245 245 242 238 236 237 238 237 239 241 247 249 252 260 258 258 261 263 271 271 268 265 276 285 290 295
273 268 300 270 225 269 259 205 270 293 291 311 312 265 214 211 213 216 214 216 217 233 253 252 254 253 248 244 242 241 240 241 245 247 249 254 262 260 251 259 265 268 268 271 277 279 279 289 292
247 257 245 250 239 276 268 241 279 309 295 306 300 287 216 202 207 211 215 216 223 238 252 253 253 249 243 242 245 246 246 245 247 249 252 254 259 258 261 261 260 261 263 262 270 275 288 296 293
236 226 242 247 256 270 256 258 272 280 284 294 308 297 239 214 210 215 220 222 226 238 240 246 241 244 243 245 248 253 251 249 241 247 251 255 263 270 262 267 250 251 258 265 267 267 274 277 281
241 254 234 233 247 252 248 246 264 286 291 286 307 297 275 244 228 230 234 237 237 242 246 240 244 245 244 245 244 324 257 251 232 280 309 291 317 306 306 302 273 279 274 275 282 282 276 275 288
253 255 245 248 234 266 274 271 279 269 271 282 294 282 268 267 252 247 247 244 251 258 258 249 254 242 240 337 326 322 8 310 329 307 291 282 281 283 270 271 269 278 280 270 276 272 283 288 290
269 247 249 242 250 238 266 274 277 291 292 296 294 279 266 262 258 260 257 254 256 261 271 269 307 286 289 310 330 334 8 307 298 280 280 277 278 284 283 274 263 275 270 264 260 275 290 289 287
Height
3177 3178 3179 3179 3184 3183 3185 3188 3188 3189 3191 3191 3193 3194 3196 3197 3198 3203 3201 3203 3204 3205 3206 3206 3207 3207 3207 3208 3207 3208 3209 3209 3209 3210 3210 3210 3211 3210 3211 3212 3213 3212 3212 3212 3213 3213 3213 3213 3213
3179 3180 3181 3180 3183 3185 3189 3190 3190 3192 3193 3193 3194 3195 3197 3198 3198 3201 3203 3204 3205 3206 3207 3208 3208 3208 3209 3209 3210 3210 3210 3210 3210 3211 3212 3212 3212 3212 3214 3214 3214 3214 3215 3216 3216 3216 3216 3216 3216
3179 3181 3183 3183 3185 3188 3190 3191 3193 3194 3195 3195 3196 3197 3198 3199 3200 3203 3204 3206 3206 3207 3208 3209 3210 3210 3210 3210 3211 3210 3211 3211 3211 3212 3212 3212 3213 3215 3216 3216 3216 3217 3219 3219 3220 3221 3221 3221 3220
3180 3183 3185 3186 3188 3190 3192 3193 3195 3195 3195 3197 3197 3198 3200 3200 3203 3204 3206 3208 3208 3209 3210 3210 3211 3211 3211 3211 3211 3212 3212 3212 3213 3213 3213 3214 3215 3217 3218 3218 3219 3221 3221 3222 3224 3225 3225 3225 3225
3182 3184 3186 3188 3191 3192 3193 3195 3196 3196 3196 3196 3197 3198 3200 3202 3204 3206 3208 3209 3209 3211 3211 3211 3211 3212 3212 3212 3212 3213 3213 3213 3214 3214 3215 3217 3218 3220 3221 3222 3223 3224 3224 3226 3227 3228 3228 3229 3229
3184 3185 3188 3190 3192 3194 3195 3197 3197 3197 3196 3197 3197 3198 3201 3203 3206 3208 3209 3210 3211 3211 3212 3213 3213 3213 3213 3213 3214 3214 3215 3216 3217 3218 3219 3221 3223 3224 3225 3226 3227 3227 3228 3230 3230 3232 3233 3232 3232
3185 3186 3189 3191 3193 3194 3197 3197 3198 3198 3197 3197 3198 3200 3202 3204 3206 3209 3210 3211 3212 3212 3213 3214 3214 3214 3215 3215 3216 3217 3218 3219 3221 3222 3224 3225 3226 3228 3230 3230 3231 3232 3232 3233 3234 3235 3235 3236 3236
3186 3189 3191 3193 3194 3196 3196 3197 3198 3197 3197 3197 3200 3202 3203 3205 3207 3210 3211 3213 3213 3213 3214 3215 3215 3216 3217 3217 3218 3220 3221 3222 3224 3225 3227 3229 3230 3231 3232 3234 3236 3236 3236 3237 3237 3238 3238 3239 3239
3190 3191 3193 3195 3196 3197 3197 3198 3199 3198 3198 3199 3201 3204 3206 3207 3208 3211 3213 3214 3215 3215 3215 3216 3217 3218 3218 3219 3220 3221 3223 3226 3227 3228 3230 3232 3234 3236 3237 3237 3238 3239 3240 3240 3240 3241 3241 3242 3242
3193 3194 3196 3198 3199 3199 3198 3199 3200 3201 3200 3201 3202 3203 3207 3209 3210 3213 3214 3216 3216 3216 3217 3217 3218 3219 3220 3221 3221 3223 3225 3228 3229 3231 3233 3236 3237 3239 3240 3240 3241 3241 3242 3243 3244 3244 3244 3244 3244
3196 3196 3197 3199 3200 3200 3200 3199 3200 3201 3203 3202 3204 3205 3208 3210 3211 3213 3215 3216 3217 3217 3218 3219 3220 3220 3221 3223 3224 3225 3227 3230 3231 3233 3235 3238 3240 3241 3242 3242 3243 3244 3245 3246 3246 3246 3246 3245 3246
3198 3198 3199 3199 3201 3202 3203 3203 3202 3203 3205 3204 3204 3208 3209 3211 3213 3214 3216 3218 3219 3219 3219 3220 3222 3223 3223 3224 3227 3228 3229 3231 3233 3235 3237 3239 3241 3242 3243 3244 3244 3245 3246 3247 3248 3247 3246 3246 3246
3199 3199 3201 3201 3203 3204 3205 3205 3205 3205 3205 3205 3206 3208 3210 3212 3213 3214 3215 3218 3219 3221 3221 3222 3223 3224 3225 3226 3228 3230 3232 3234 3235 3236 3237 3238 3241 3242 3243 3244 3246 3247 3247 3247 3247 3246 3246 3245 3244
3199 3201 3202 3203 3204 3205 3206 3206 3206 3206 3206 3207 3207 3209 3211 3212 3214 3215 3216 3217 3220 3221 3223 3224 3225 3226 3227 3228 3230 3231 3233 3235 3237 3238 3239 3241 3241 3242 3243 3244 3245 3246 3246 3247 3246 3246 3245 3245 3244
3200 3201 3203 3204 3205 3206 3207 3208 3207 3207 3207 3207 3208 3209 3211 3212 3213 3214 3215 3217 3219 3221 3222 3224 3225 3227 3228 3229 3231 3232 3234 3235 3236 3238 3239 3240 3241 3242 3243 3243 3244 3245 3246 3246 3246 3245 3245 3244 3243
3201 3203 3204 3205 3206 3207 3208 3208 3207 3207 3207 3207 3207 3208 3210 3212 3213 3214 3216 3217 3218 3221 3222 3223 3225 3227 3228 3230 3231 3232 3234 3235 3237 3238 3238 3238 3239 3241 3242 3243 3243 3244 3244 3244 3244 3245 3244 3243 3243
3202 3202 3203 3204 3205 3206 3207 3206 3206 3207 3207 3207 3207 3208 3209 3211 3213 3214 3216 3217 3219 3220 3222 3224 3225 3226 3229 3230 3231 3232 3234 3235 3236 3237 3239 3239 3238 3239 3239 3241 3241 3242 3241 3242 3241 3241 3241 3240 3240
3201 3201 3202 3204 3205 3205 3204 3205 3206 3205 3205 3205 3207 3208 3209 3211 3213 3214 3215 3217 3217 3219 3221 3222 3224 3226 3227 3229 3230 3231 3232 3233 3235 3237 3237 3238 3238 3237 3236 3237 3238 3238 3238 3238 3238 3238 3238 3236 3236
3200 3202 3203 3204 3204 3204 3203 3203 3203 3203 3203 3203 3204 3206 3208 3211 3213 3213 3214 3216 3217 3218 3219 3221 3222 3224 3226 3228 3230 3231 3232 3233 3233 3234 3235 3235 3235 3235 3235 3235 3235 3235 3235 3234 3233 3233 3233 3232 3231
3200 3201 3202 3202 3202 3203 3201 3200 3199 3200 3202 3203 3203 3204 3206 3209 3210 3212 3213 3214 3215 3217 3218 3219 3221 3222 3224 3226 3228 3229 3230 3230 3231 3232 3233 3233 3232 3232 3233 3233 3233 3232 3232 3230 3229 3230 3230 3229 3228
3199 3200 3201 3202 3201 3200 3199 3195 3194 3196 3199 3201 3202 3203 3204 3205 3208 3210 3211 3213 3214 3214 3215 3216 3219 3220 3222 3224 3225 3226 3227 3227 3229 3230 3230 3231 3231 3231 3231 3231 3229 3229 3228 3226 3225 3225 3225 3224 3224
3197 3198 3198 3199 3200 3200 3200 3197 3193 3193 3194 3194 3198 3200 3201 3203 3204 3206 3208 3210 3211 3213 3213 3214 3215 3217 3219 3220 3221 3223 3224 3226 3226 3227 3228 3228 3228 3228 3227 3227 3226 3225 3223 3222 3222 3221 3220 3220 3220
3198 3197 3196 3197 3198 3199 3199 3201 3191 3192 3191 3192 3194 3194 3198 3201 3202 3203 3204 3207 3209 3210 3211 3211 3212 3213 3215 3216 3218 3219 3220 3222 3222 3223 3224 3224 3223 3222 3222 3222 3222 3220 3220 3219 3218 3217 3216 3216 3215
3196 3196 3196 3197 3198 3198 3197 3200 3191 3190 3190 3191 3191 3191 3194 3197 3199 3200 3202 3204 3206 3207 3207 3208 3209 3209 3210 3211 3213 3213 3215 3216 3216 3218 3218 3218 3218 3216 3217 3217 3216 3215 3214 3214 3213 3213 3212 3211 3211
3195 3196 3197 3198 3198 3194 3193 3196 3190 3190 3189 3188 3188 3188 3190 3193 3196 3199 3199 3200 3202 3204 3206 3207 3207 3207 3207 3207 3207 3208 3209 3210 3211 3212 3211 3212 3211 3210 3207 3210 3209 3211 3210 3209 3209 3209 3208 3208 3207
3191 3195 3195 3193 3192 3190 3191 3190 3187 3188 3188 3187 3185 3185 3185 3187 3191 3194 3196 3197 3200 3202 3204 3205 3205 3204 3202 3201 3201 3202 3203 3203 3203 3204 3205 3205 3204 3201 3201 3202 3204 3206 3206 3205 3204 3204 3204 3203 3203
3187 3189 3191 3190 3190 3191 3188 3185 3184 3185 3185 3184 3182 3180 3181 3182 3182 3185 3189 3192 3195 3197 3198 3198 3197 3197 3196 3194 3197 3197 3196 3195 3191 3195 3195 3195 3197 3193 3194 3198 3198 3200 3201 3201 3200 3199 3199 3198 3197
3185 3186 3188 3188 3187 3185 3182 3182 3181 3181 3180 3180 3179 3178 3178 3179 3181 3182 3185 3189 3190 3191 3192 3189 3190 3193 3193 3192 3191 3184 3179 3185 3169 3174 3183 3188 3189 3187 3192 3192 3192 3194 3193 3194 3196 3196 3195 3194 3193
3182 3182 3183 3183 3182 3177 3174 3175 3176 3177 3176 3176 3176 3176 3175 3175 3176 3178 3180 3183 3186 3186 3185 3172 3185 3183 3179 3178 3185 3183 3174 3174 3173 3178 3182 3185 3186 3186 3187 3186 3186 3187 3189 3189 3189 3189 3188 3189 3187
3174 3176 3177 3178 3178 3175 3172 3172 3172 3172 3172 3172 3172 3172 3171 3171 3172 3173 3174 3177 3179 3180 3181 3182 3178 3177 3176 3174 3170 3168 3172 3178 3177 3176 3180 3182 3182 3180 3182 3180 3181 3181 3181 3181 3180 3181 3183 3182 3182